Theta_e
298 289 287 287 288 290 291 292 292 293 291 291 290 290 289 287 290 292 292 294 293 291 288 290 290 290 292 293 295 295 294 293 294 296 296 297 297 297 297 298 299 299 300 302 302 303 304 305 309 311 312 314 316 319 320 320 321 322 323 321 321 322 323 323 321 320 321 320 317 315 317 318 316 315 316 319 320 322 324 324 326 326 328 330 329 329
294 289 290 290 294 293 293 293 292 292 291 291 288 287 288 288 288 292 292 294 293 291 286 286 287 290 291 292 293 294 292 294 295 295 295 296 297 298 298 298 299 300 299 302 301 301 302 302 304 305 308 310 312 314 318 319 320 321 321 321 322 321 321 322 322 321 321 321 321 320 319 319 315 313 314 316 317 320 320 321 322 324 327 329 330 326
289 288 291 295 294 293 293 292 291 292 290 289 288 286 286 286 288 292 292 292 293 291 287 285 288 291 292 293 294 294 296 297 297 298 299 298 296 296 297 298 299 298 299 298 301 302 302 302 302 303 305 309 313 313 315 318 318 318 319 320 320 320 320 321 321 320 320 320 318 318 312 315 309 309 312 312 315 315 318 319 320 321 324 326 329 329
287 288 294 295 293 294 292 290 290 289 288 288 286 285 284 285 290 285 289 291 293 290 287 287 289 292 294 294 294 296 296 295 297 297 298 298 297 297 298 299 299 298 299 299 300 301 301 301 302 301 302 305 308 308 308 309 313 316 317 318 318 318 319 319 318 316 316 313 310 309 308 309 312 309 307 310 309 313 314 317 318 320 322 324 325 327
287 291 293 294 294 294 292 291 289 288 289 288 288 285 286 290 291 289 288 290 290 290 292 289 288 288 287 288 289 291 293 295 296 295 295 296 297 299 299 297 297 298 299 300 300 300 300 300 301 302 303 302 304 306 308 308 310 314 314 315 315 315 316 315 313 312 310 310 308 307 307 306 306 307 308 308 309 312 314 317 318 320 321 323 323 325
290 293 294 294 294 291 291 290 289 288 287 286 288 290 289 289 290 291 290 288 283 281 286 289 280 279 283 286 288 292 290 291 291 293 294 295 295 296 297 298 298 298 297 299 300 302 302 302 301 300 299 301 302 304 306 307 309 310 310 311 311 312 312 313 310 310 311 311 310 308 308 307 306 308 307 310 312 311 312 316 315 314 320 321 322 324
289 294 294 294 292 290 290 289 290 290 284 285 286 292 291 290 289 289 289 286 280 279 289 289 282 281 284 287 288 289 287 289 290 289 293 293 295 296 298 299 298 299 299 298 299 300 300 300 300 300 300 301 301 303 303 303 305 306 308 309 310 311 311 311 310 310 310 310 310 310 311 310 309 309 308 306 306 309 307 310 312 314 315 319 319 319
292 294 292 292 291 289 288 289 291 290 287 283 290 292 289 289 290 289 288 286 281 283 286 288 282 277 280 288 285 286 288 288 291 293 292 292 296 298 298 297 296 299 297 298 300 299 301 302 302 301 301 300 302 302 301 303 304 305 307 308 309 310 309 310 310 310 311 311 310 309 309 309 308 308 308 306 307 306 308 309 310 311 312 314 316 317
293 291 291 291 288 286 287 288 293 291 286 287 293 293 291 290 289 288 286 283 286 283 282 280 287 281 278 286 288 289 289 289 290 291 292 294 294 295 295 295 296 298 298 299 300 300 299 301 301 300 300 301 300 300 302 303 304 304 305 307 308 309 309 309 310 310 310 311 310 310 309 307 307 307 306 305 306 307 306 307 306 309 311 313 315 317
293 291 292 292 289 288 290 290 291 293 289 292 293 293 292 291 290 288 283 286 282 281 278 281 285 278 278 283 287 285 287 286 289 291 292 291 292 293 293 296 299 299 299 300 300 299 298 299 300 300 301 300 301 301 302 302 303 304 304 306 307 308 309 309 309 310 310 310 309 309 308 308 306 304 304 304 305 306 305 307 306 307 310 312 313 314
294 295 295 294 291 291 290 292 292 293 293 293 292 291 289 286 284 283 281 280 279 275 277 282 286 283 278 280 285 285 286 287 289 287 291 296 296 298 296 297 299 299 298 298 299 299 299 298 298 299 300 300 298 299 301 302 303 303 304 305 306 307 308 308 309 309 309 309 309 309 308 307 306 304 305 304 304 304 304 306 307 307 309 310 311 312
292 292 293 293 294 293 292 291 292 292 293 293 289 284 284 283 279 279 279 279 275 272 276 280 284 284 277 278 283 288 287 287 289 291 291 294 297 299 299 299 298 299 299 298 298 299 298 298 297 297 299 298 299 298 300 301 302 303 304 305 305 305 306 307 308 308 309 309 308 309 308 307 307 305 306 306 305 304 305 305 306 307 307 308 309 310
288 287 290 294 295 294 289 289 289 287 288 289 286 284 278 276 277 274 276 276 273 274 279 281 283 283 284 286 286 290 291 292 291 291 293 292 295 296 298 298 297 296 297 297 297 297 297 297 297 297 297 296 298 300 300 301 302 302 303 304 305 305 305 307 307 308 308 307 308 308 307 307 306 306 306 306 306 305 305 305 305 305 307 308 307 308
283 285 291 290 292 294 292 288 285 286 288 286 287 281 277 273 273 268 269 272 273 277 280 282 283 282 282 284 292 295 297 295 292 291 290 291 295 298 299 298 298 296 297 297 297 296 296 296 297 296 296 298 299 299 300 300 301 302 303 303 304 305 305 305 306 307 307 307 308 307 307 307 305 305 306 306 306 305 306 306 306 306 307 307 307 307
278 279 286 289 287 293 293 291 290 287 288 289 286 286 281 275 271 269 271 273 274 273 279 280 279 278 277 284 291 290 292 291 290 291 292 292 294 295 296 295 296 297 296 295 296 298 298 298 296 297 297 296 298 299 299 299 300 301 302 303 303 303 304 304 305 306 307 307 306 306 306 306 305 306 306 306 306 306 305 305 306 306 306 307 307 307
283 281 284 294 292 294 293 294 292 288 287 286 286 286 279 282 277 274 271 273 272 274 275 277 279 278 283 287 290 290 291 293 292 290 289 291 294 295 297 298 297 297 297 297 297 298 298 299 299 298 297 297 296 296 297 298 300 301 302 302 303 304 304 304 304 305 306 306 306 306 305 305 304 304 304 304 304 305 306 306 306 306 306 306 305 304
283 280 289 294 292 294 294 293 292 291 282 283 287 283 284 285 284 277 276 281 276 273 276 275 280 283 284 287 292 295 292 291 291 291 289 290 291 292 293 292 293 294 296 297 298 299 300 297 297 299 298 297 296 296 298 299 300 301 302 302 302 302 302 303 304 305 305 305 304 304 305 305 304 303 304 305 304 304 303 304 304 305 305 305 304 303
283 279 287 289 289 292 291 293 292 291 288 287 282 285 289 289 286 281 274 273 272 272 275 276 278 279 278 279 284 285 289 287 284 287 289 288 288 291 291 292 293 294 296 297 298 298 298 298 299 300 300 299 299 298 298 299 299 301 301 301 302 301 302 303 304 304 304 304 304 304 304 304 304 304 304 304 304 303 303 302 302 302 303 303 303 303
286 279 283 287 287 291 293 293 292 292 292 286 282 289 288 280 280 280 275 272 270 267 271 275 276 278 281 284 285 287 286 288 290 289 288 289 289 291 291 291 292 293 295 296 297 297 298 298 299 299 299 299 298 298 298 298 298 299 299 300 301 302 302 302 303 303 303 303 304 304 303 303 303 304 304 303 302 302 303 303 302 301 302 301 301 301
286 279 280 286 288 289 288 288 284 285 290 291 291 290 287 281 276 278 279 274 274 270 270 275 277 279 284 282 285 287 289 291 289 287 288 290 293 294 293 294 294 294 295 295 295 297 298 299 299 299 298 297 298 297 296 296 296 298 299 299 300 300 300 300 301 302 302 302 303 303 301 301 303 302 302 302 301 301 301 302 302 301 298 301 299 299
285 283 274 282 285 287 284 285 284 287 286 286 286 284 286 284 285 280 282 279 276 267 267 269 274 278 283 287 286 288 287 288 287 290 291 292 291 292 293 294 293 295 295 295 295 296 298 298 298 297 295 295 293 294 294 295 297 298 297 299 299 300 300 300 301 301 302 301 301 299 300 300 299 299 300 298 299 300 300 300 299 299 299 294 295 295
283 283 278 281 283 282 283 288 289 290 292 290 289 286 288 283 280 276 277 281 275 278 272 270 275 282 286 288 289 287 292 292 291 291 292 291 291 293 294 293 294 297 298 297 296 296 296 295 295 294 292 292 293 292 292 293 294 295 297 299 299 299 299 300 300 301 301 300 301 299 299 298 296 298 297 297 296 296 296 296 296 295 292 294 294 295
287 281 280 277 282 286 288 287 290 290 292 289 288 287 289 287 284 277 276 275 278 278 277 274 274 283 288 289 288 292 290 291 292 291 292 291 292 292 295 294 295 295 297 299 298 298 296 296 294 293 293 293 293 293 291 291 294 296 295 296 297 298 299 298 299 297 298 299 298 298 297 296 295 296 294 294 294 294 293 293 292 291 294 294 293 293
294 281 278 280 282 285 289 289 288 290 292 289 288 286 286 284 283 283 279 276 279 277 279 276 276 283 289 289 290 289 288 291 290 292 293 292 291 292 291 293 295 296 296 295 295 294 294 292 291 291 292 292 293 292 293 293 292 294 296 297 297 297 297 296 296 295 296 297 297 296 293 294 294 293 294 294 294 293 292 291 291 290 292 293 293 293
286 282 283 275 273 278 279 284 287 284 287 284 283 286 287 286 284 280 278 277 279 278 279 278 277 283 290 289 290 288 290 290 289 291 289 292 292 291 292 293 293 294 295 296 297 296 294 292 294 295 294 294 293 292 292 293 295 295 296 296 296 298 296 296 294 295 296 296 295 293 292 293 292 293 293 293 292 292 291 290 290 290 291 291 291 291
289 285 285 278 276 274 271 273 274 279 284 282 283 284 288 288 285 283 281 279 279 278 280 279 280 287 292 288 288 289 288 290 289 288 288 291 292 294 292 293 294 295 297 297 297 298 298 298 295 294 292 293 293 294 294 294 295 296 296 297 296 297 295 295 293 296 297 296 295 294 292 293 292 293 293 293 291 291 290 290 290 291 290 290 291 290
286 287 287 285 283 280 279 277 282 284 283 283 282 285 285 286 287 286 281 279 281 283 281 283 285 287 288 291 290 290 289 287 292 290 292 293 292 290 289 291 292 294 295 296 298 299 296 295 297 298 296 294 293 293 294 295 295 295 295 295 294 295 294 294 294 295 296 295 293 294 294 293 293 293 292 292 291 290 290 290 290 290 290 289 290 290
286 286 287 288 285 284 283 286 288 287 284 284 283 282 283 285 284 285 284 283 286 279 280 286 286 284 287 290 291 291 291 291 290 289 290 289 290 291 293 293 293 292 292 294 296 297 299 299 298 296 296 295 296 296 295 295 295 295 295 295 294 293 293 295 293 294 294 293 293 294 295 294 292 291 291 291 290 290 290 290 290 290 289 288 289 289
286 284 286 288 286 288 287 288 288 288 287 286 285 284 285 283 283 282 285 288 285 283 282 287 285 284 288 291 292 293 292 292 292 292 293 294 293 292 292 293 294 295 296 295 297 298 297 297 298 297 297 297 296 296 297 297 296 294 293 294 294 292 293 293 293 293 294 293 293 295 296 293 291 291 290 290 290 290 290 290 290 289 289 288 288 288
290 286 287 288 286 288 289 289 289 287 286 287 286 286 287 286 285 285 286 287 287 284 287 288 287 287 290 292 294 295 295 294 295 294 294 293 294 294 293 293 294 295 295 295 296 297 297 297 297 296 297 297 297 298 298 297 297 296 296 295 294 292 293 289 292 293 293 293 294 295 295 292 291 291 290 290 291 290 290 290 289 289 288 288 288 287
292 285 290 286 286 287 289 290 289 289 289 287 289 289 290 290 289 288 287 286 285 285 287 288 287 287 293 295 295 297 298 296 294 294 296 297 295 293 292 293 294 295 296 296 295 295 295 295 295 295 296 297 298 298 299 299 298 297 296 295 294 294 293 291 292 292 293 294 295 295 293 291 291 291 290 291 290 289 289 289 289 288 287 287 286 287
289 282 287 286 284 284 287 286 286 286 286 285 286 288 288 288 286 288 286 288 286 286 288 286 285 287 293 293 293 295 295 295 295 295 296 297 297 294 292 293 294 296 296 295 295 295 295 295 295 295 296 297 297 298 298 299 299 298 297 296 295 295 292 290 291 292 293 293 293 292 292 292 291 290 291 290 290 289 288 288 288 287 287 286 285 285
287 284 284 283 283 283 284 284 283 284 285 283 284 287 289 289 290 290 291 291 291 291 287 285 286 293 294 294 291 293 295 296 296 296 297 297 295 294 292 294 295 295 296 297 296 296 295 296 296 296 296 295 296 297 297 298 297 298 299 298 298 293 289 291 291 292 292 292 292 291 291 290 290 290 290 290 289 288 287 287 287 287 286 285 285 284
285 285 283 284 281 281 281 281 284 283 278 280 291 294 292 289 289 288 288 291 293 292 290 292 292 294 294 294 293 294 294 295 296 298 298 296 294 293 293 294 295 294 294 295 296 296 297 297 297 297 295 295 296 296 297 295 296 298 298 298 296 291 291 291 291 291 292 291 290 290 289 289 289 289 289 288 287 287 287 287 287 286 286 285 284 284
285 285 284 285 283 282 280 283 281 277 279 290 295 295 295 294 293 291 291 292 292 293 293 293 294 294 296 296 296 296 296 296 297 296 297 295 294 294 293 295 294 294 294 295 296 297 296 296 296 295 295 296 295 293 293 294 294 294 294 295 294 292 291 290 290 290 290 290 289 288 289 289 289 289 288 287 287 287 287 287 286 285 284 284 284 284
285 285 283 284 285 286 282 281 275 278 287 288 288 290 291 291 290 289 287 290 292 292 293 292 294 295 296 297 296 295 292 291 291 291 292 292 293 292 292 293 294 294 294 295 294 295 295 294 294 294 294 293 292 292 291 293 293 291 294 291 291 291 289 289 289 289 288 289 288 288 288 288 288 288 287 286 286 286 286 285 285 284 283 282 282 282
289 283 283 281 285 279 282 282 281 285 285 286 286 285 285 285 285 287 284 287 292 292 292 292 293 293 291 290 288 288 288 288 290 292 289 292 294 294 293 293 293 294 294 294 294 294 293 291 291 292 290 291 292 292 293 291 288 289 290 289 289 287 287 287 288 289 289 288 288 287 287 288 288 287 286 285 285 285 285 284 283 282 282 282 281 282
290 286 286 284 282 285 280 277 277 278 276 282 288 289 289 289 291 291 289 285 287 286 288 288 287 287 287 285 286 286 286 288 288 290 290 293 294 293 293 293 293 292 292 293 292 290 290 290 289 290 290 290 290 291 289 288 287 287 288 288 286 285 286 286 288 289 288 288 287 286 286 286 287 287 285 284 285 285 284 283 283 282 282 282 281 281
291 291 286 285 283 283 280 277 278 276 279 286 285 285 286 288 291 288 287 284 285 282 286 287 285 286 285 285 286 285 286 283 283 287 290 291 292 292 291 292 292 292 292 291 291 291 290 290 289 288 288 289 290 292 288 286 286 287 289 288 286 284 286 287 288 287 287 287 285 285 285 285 286 286 285 284 284 284 283 282 282 280 280 281 281 281
287 287 286 283 281 283 282 280 277 282 280 284 284 286 289 288 291 287 279 279 285 283 285 285 285 284 284 284 285 284 282 282 284 288 292 292 291 290 290 290 291 291 291 291 291 291 290 287 286 288 289 289 290 288 285 284 285 286 288 288 284 285 287 288 288 286 283 283 284 284 284 284 285 284 284 284 283 282 282 280 279 279 280 279 280 280
284 285 286 281 283 282 283 280 282 282 286 287 286 285 284 287 287 279 275 284 284 284 283 284 285 284 284 286 286 285 285 287 289 291 291 289 289 290 291 290 291 290 289 289 290 289 289 290 289 288 287 288 287 285 284 283 285 287 286 285 284 286 287 285 283 282 282 282 281 281 282 281 283 283 281 282 282 281 279 279 279 279 279 279 280 281
284 285 285 285 282 280 281 279 279 283 285 283 282 286 285 285 279 278 282 283 283 282 283 284 284 283 283 285 285 286 288 288 287 288 287 288 287 289 289 289 290 291 291 290 289 288 288 288 288 288 288 286 284 283 283 283 285 286 285 284 285 286 282 281 281 281 281 280 280 280 280 279 279 280 280 279 280 279 277 276 278 279 279 280 281 281
282 281 280 282 284 284 282 279 279 275 284 284 287 285 285 281 281 285 284 284 282 283 284 282 284 285 285 286 285 286 287 287 287 287 288 288 288 289 289 289 289 289 289 289 289 289 287 286 287 287 286 286 283 282 282 281 283 284 284 283 285 282 280 281 280 280 279 279 279 278 277 277 277 279 279 279 279 278 277 277 278 278 280 281 281 281
283 280 278 282 286 278 280 277 278 285 286 288 285 281 284 283 287 285 287 287 285 283 283 284 283 285 286 288 289 288 288 287 287 287 288 289 289 289 289 289 289 289 288 288 286 286 285 285 286 286 286 284 283 281 281 281 283 284 283 283 281 279 280 279 279 278 278 277 276 276 276 276 277 278 278 278 278 278 277 277 278 279 280 280 280 280
282 281 281 278 280 283 278 281 286 284 286 287 285 284 286 289 288 287 287 287 288 287 285 288 287 287 287 288 288 288 288 288 287 288 287 288 288 288 288 289 288 288 288 287 287 285 283 284 284 284 285 285 281 280 280 279 281 282 282 280 279 279 279 278 278 278 277 276 275 276 275 276 277 277 276 276 278 277 277 277 277 277 278 280 280 279
279 280 281 281 279 280 280 284 283 282 283 286 286 284 286 287 287 287 288 288 287 288 287 288 288 287 286 287 287 287 286 287 287 287 288 288 288 288 288 289 289 289 288 288 287 285 283 283 282 283 283 284 282 280 279 280 279 281 281 279 279 278 277 277 277 276 276 275 275 275 276 276 275 275 275 275 276 277 277 277 277 277 277 279 279 279
280 281 280 279 277 279 276 281 281 283 283 283 283 283 283 284 284 285 285 286 285 285 284 284 286 286 286 285 286 286 286 286 286 287 287 287 288 288 288 288 288 288 288 287 287 284 283 282 283 283 283 282 282 277 278 276 278 279 278 277 277 277 276 276 276 276 275 275 276 275 276 276 276 275 276 275 275 276 276 277 277 277 277 278 278 278
277 278 279 275 277 277 277 281 280 282 283 282 283 282 284 285 284 283 284 284 284 283 283 284 284 283 283 284 284 283 284 285 285 286 287 287 288 288 288 288 288 288 288 287 285 283 281 282 281 281 281 281 282 277 276 275 276 276 275 275 276 275 275 276 276 276 275 275 276 277 277 277 278 278 277 277 278 277 276 276 277 278 278 278 278 278
276 280 273 276 277 276 277 279 278 279 279 280 279 281 282 283 282 282 282 282 282 283 284 284 282 284 284 285 284 283 283 284 285 285 286 287 287 287 288 288 288 287 287 287 286 282 282 282 281 281 280 280 279 275 274 274 273 273 274 275 275 275 276 276 277 276 275 276 278 278 279 279 279 279 279 279 279 278 277 279 279 280 280 280 281 280
279 276 276 276 272 273 275 277 276 276 273 278 279 282 283 281 282 281 282 283 283 283 283 283 284 283 282 283 283 283 283 284 285 285 285 286 286 286 287 287 287 287 287 287 285 282 280 280 279 279 279 279 275 273 273 272 272 272 273 273 275 276 278 278 278 276 277 278 279 279 279 279 279 279 279 279 279 279 279 281 282 281 280 280 282 283
278 278 278 274 274 273 278 279 279 279 278 280 283 283 280 281 281 281 281 280 282 282 282 282 283 283 284 284 284 283 283 284 284 284 284 285 286 286 286 286 286 286 286 286 284 284 283 282 279 277 277 277 273 272 271 272 271 273 273 274 276 279 280 279 279 279 279 279 280 280 280 279 279 279 279 279 279 279 278 279 281 283 283 283 282 283
Wind_Speed
1 3 5 6 7 7 5 6 7 4 7 4 4 3 1 2 1 1 0 1 1 1 4 6 6 7 8 9 11 9 6 5 7 9 10 9 9 8 9 10 11 10 14 9 9 10 12 12 11 10 9 9 9 9 10 11 12 12 13 12 13 11 10 10 9 9 10 10 7 5 9 10 8 8 7 8 7 8 8 7 8 8 8 9 10 9
5 3 4 7 7 7 8 4 3 3 5 4 4 4 2 1 1 1 0 2 3 1 3 1 4 10 10 9 10 9 5 9 10 10 10 12 10 9 10 12 12 13 4 3 4 6 6 7 7 7 7 7 10 10 11 13 15 14 11 13 13 9 10 12 12 11 11 11 12 12 12 9 7 7 7 8 7 8 7 8 7 6 7 9 9 9
2 5 7 8 5 3 4 5 5 4 4 4 3 2 2 2 2 1 1 1 1 2 7 3 6 13 11 9 10 10 12 11 11 12 13 11 10 9 10 12 12 7 9 6 8 6 8 9 8 8 8 9 13 13 13 13 11 10 11 11 10 10 11 11 11 10 12 10 7 8 5 7 4 3 4 4 4 5 7 7 7 7 7 8 9 10
1 5 10 6 3 4 2 4 7 5 5 3 2 2 2 2 1 3 2 1 1 2 2 2 7 14 11 7 12 14 10 7 8 9 11 9 10 12 14 13 10 10 10 10 10 9 7 8 9 7 8 11 8 7 6 5 8 8 10 9 10 10 10 9 9 9 6 5 3 3 3 4 5 5 3 4 4 5 6 7 7 7 7 8 8 8
6 2 1 0 3 3 3 1 4 2 1 1 3 2 0 1 0 3 2 1 1 1 1 3 5 10 5 4 6 6 3 6 10 7 7 9 10 12 10 6 8 11 10 11 9 6 4 6 9 13 12 7 8 8 9 9 9 9 10 9 8 7 8 6 5 5 5 5 4 3 3 3 2 1 3 4 6 6 6 6 8 9 7 7 8 9
3 2 1 2 1 3 4 1 2 5 1 1 2 5 5 3 4 1 2 3 7 3 2 2 6 5 5 5 7 10 6 6 4 2 7 10 8 8 10 13 7 5 6 9 10 10 10 11 8 6 5 7 7 8 9 8 8 7 7 6 6 6 7 7 6 7 7 7 8 7 7 7 6 8 7 12 14 10 10 11 5 5 8 7 7 7
3 1 1 3 4 3 3 1 2 4 4 1 2 1 2 5 5 3 1 3 2 0 1 2 2 9 5 9 6 7 5 9 9 3 6 6 8 9 11 9 6 7 6 4 4 2 4 5 5 6 7 7 8 9 5 5 6 6 6 7 8 8 7 8 7 9 8 8 8 11 11 9 10 10 9 5 3 7 5 4 7 7 7 9 9 7
1 0 4 4 4 3 3 1 1 6 7 1 1 1 4 4 3 2 3 3 3 2 4 2 3 2 10 10 3 2 5 6 10 12 9 7 9 11 9 4 5 7 6 5 5 4 6 7 10 12 9 7 10 6 5 5 5 7 8 8 8 7 8 8 8 10 10 11 10 10 10 10 10 11 10 8 6 4 6 6 7 6 7 7 8 7
1 3 2 3 2 3 4 3 0 3 5 2 1 4 4 4 3 4 4 2 0 2 7 4 0 0 5 10 2 4 7 8 9 9 10 10 8 8 7 5 6 6 5 6 6 6 6 8 8 6 7 7 5 5 7 7 7 7 6 7 7 8 8 8 10 11 10 11 11 11 9 10 9 8 7 5 6 6 6 6 5 6 6 7 8 9
2 2 3 6 5 3 2 0 0 4 4 2 2 3 5 6 5 4 2 2 1 2 6 2 2 3 8 10 6 1 1 6 8 10 8 8 9 8 7 2 2 1 0 1 2 2 4 6 6 6 5 5 7 6 6 5 5 6 6 7 8 9 8 9 10 11 11 11 10 10 11 12 9 6 5 5 6 7 6 8 7 7 7 7 8 10
1 1 4 3 3 4 4 0 1 2 2 4 5 7 6 7 4 3 5 2 2 3 7 8 7 6 7 6 8 2 4 6 5 4 2 1 2 2 1 4 5 3 2 3 2 1 2 1 4 5 7 7 5 5 6 6 6 6 7 7 9 9 8 8 10 10 11 10 10 11 11 12 11 9 8 8 7 7 7 9 9 9 8 8 8 7
2 2 1 1 2 3 3 4 6 2 3 4 2 3 5 3 5 4 3 4 1 6 6 3 4 4 7 5 8 7 6 3 4 4 2 1 1 1 2 1 1 2 3 2 3 2 2 3 2 3 5 5 5 5 6 6 6 7 7 7 8 7 8 8 9 9 10 10 10 9 10 12 11 10 10 11 11 10 10 10 10 8 7 8 8 8
1 1 1 2 3 6 3 8 5 5 3 5 6 7 5 2 3 2 2 1 4 6 1 3 1 1 14 9 7 8 8 9 6 2 1 2 3 2 1 0 1 1 3 4 4 3 2 4 5 5 6 5 5 8 7 7 6 6 6 8 9 9 8 9 8 10 10 10 11 11 10 10 9 10 11 11 11 9 10 9 8 8 9 8 9 9
4 2 1 1 4 3 5 9 2 2 2 5 7 6 5 1 1 4 4 2 4 5 3 1 2 6 2 4 13 17 17 3 1 2 4 4 2 2 1 1 2 4 2 2 2 3 4 4 5 5 5 7 7 7 8 6 6 6 7 8 9 10 8 7 8 10 10 11 11 9 10 10 9 11 11 11 11 10 9 9 10 11 10 10 11 10
1 3 5 4 2 4 5 8 12 9 8 8 3 9 8 8 5 4 3 4 7 5 2 4 1 7 1 2 1 5 7 7 4 2 2 1 2 1 1 2 3 1 2 3 5 5 5 6 5 6 6 6 7 7 7 6 6 6 7 8 10 9 8 8 10 9 11 10 10 10 10 10 9 10 10 10 9 10 10 9 10 10 9 10 9 10
9 5 5 9 1 8 9 3 5 6 2 2 3 6 4 8 5 2 4 3 1 1 2 1 6 4 5 4 6 5 6 9 6 1 1 2 1 1 1 2 2 4 5 5 5 6 7 8 7 7 6 6 5 5 4 6 7 8 9 9 10 11 10 10 9 10 11 10 9 10 11 11 10 9 8 8 8 9 9 10 10 10 10 9 8 8
2 3 2 3 3 11 7 4 3 5 5 4 5 6 8 5 5 2 2 1 2 3 9 2 8 7 8 7 10 13 7 8 9 10 5 5 3 0 3 3 4 5 5 5 6 6 6 4 5 6 6 6 6 6 9 10 9 10 9 9 10 9 7 10 10 11 10 10 10 11 10 9 9 10 11 11 10 9 8 8 8 8 9 8 8 8
9 4 2 2 4 1 0 1 2 3 3 6 4 8 1 2 4 4 5 2 1 5 8 3 10 4 3 11 3 2 2 3 4 6 5 5 3 3 5 5 4 5 6 5 5 5 5 6 7 7 7 8 9 10 9 10 8 8 8 9 10 9 11 11 10 10 10 11 11 10 11 11 11 11 11 10 9 8 8 7 7 7 8 9 8 8
5 1 1 0 1 5 2 2 1 2 1 4 4 2 7 4 2 2 3 3 1 2 6 5 3 7 9 11 3 7 6 9 8 7 5 4 6 4 2 3 5 5 4 4 5 5 6 7 7 8 9 8 7 7 8 6 6 6 6 7 8 11 11 10 9 8 8 9 9 9 11 11 11 10 9 8 7 7 9 10 8 9 8 7 7 8
1 5 2 2 2 2 2 4 9 4 3 1 2 1 1 4 3 5 7 4 6 5 0 10 2 11 5 4 8 8 9 12 8 6 2 2 2 2 4 4 5 4 3 4 3 5 7 8 7 7 7 7 7 7 6 5 5 7 8 7 8 7 6 7 10 10 11 11 9 9 8 9 9 9 9 8 8 9 9 9 8 8 6 8 7 7
2 2 4 2 3 2 2 4 8 9 8 3 2 3 1 0 2 4 0 4 5 3 4 4 9 9 5 8 6 8 6 6 4 2 4 2 3 4 4 5 5 2 2 3 3 4 6 6 6 6 5 5 4 3 3 4 6 6 5 7 7 10 10 10 10 9 11 8 10 9 11 10 9 9 8 7 8 9 9 7 7 7 7 5 7 7
2 1 5 1 1 4 8 4 7 11 14 11 12 10 11 7 3 4 8 1 2 3 5 2 12 11 7 3 7 4 5 7 5 3 1 1 4 5 3 4 3 5 6 7 5 4 3 2 4 5 4 2 2 4 4 4 4 5 6 7 7 8 10 10 10 10 9 8 9 10 10 9 7 8 8 8 8 9 9 8 8 7 5 7 7 7
7 3 7 4 8 10 9 4 3 5 1 1 3 7 6 4 6 5 6 5 1 4 2 4 1 20 2 7 6 8 4 3 4 6 5 5 6 7 9 9 8 4 5 7 7 7 5 2 3 4 4 5 5 5 5 5 5 6 6 7 8 9 12 7 7 5 5 7 8 11 9 8 9 8 9 10 9 9 8 7 7 6 8 7 6 7
4 3 2 2 1 2 2 2 3 3 2 1 2 2 3 4 5 7 5 6 7 2 3 2 5 17 2 5 7 3 3 0 2 3 4 6 5 6 6 7 7 7 8 7 6 5 5 4 3 2 4 5 5 6 7 7 6 6 7 9 8 11 12 7 7 6 6 7 9 7 6 9 8 9 10 11 9 9 7 7 7 6 7 7 7 8
4 4 7 2 1 2 4 3 2 4 1 1 2 3 4 3 3 2 3 1 1 6 7 7 13 16 3 4 0 2 2 4 4 5 3 4 4 4 5 6 6 7 8 8 8 8 7 6 7 7 5 6 7 6 6 8 9 9 11 9 11 12 9 8 6 6 8 8 10 8 8 9 8 10 11 11 8 9 8 7 7 6 7 7 7 6
3 3 7 6 9 8 4 6 6 5 7 3 3 3 5 9 6 4 6 2 7 5 8 5 10 16 15 3 3 1 5 5 4 4 4 1 5 6 5 5 6 6 7 7 8 9 10 8 7 7 7 7 7 9 9 9 10 10 11 13 12 11 8 8 6 9 10 9 9 9 9 10 8 11 12 10 9 9 8 8 8 8 7 7 8 6
2 1 3 6 10 11 8 3 3 4 3 4 4 6 5 3 8 7 4 6 12 9 9 10 12 18 23 22 9 10 1 4 1 5 5 6 6 4 4 4 5 5 7 8 8 9 8 8 10 10 7 6 6 8 8 8 9 10 10 11 9 8 8 9 8 9 9 9 8 8 10 10 11 10 9 9 8 7 7 8 8 8 8 7 8 8
2 1 2 2 2 4 6 4 2 4 1 2 1 2 1 0 2 7 9 12 7 4 13 12 13 12 22 23 19 10 1 1 4 5 4 4 5 5 6 6 6 5 6 8 9 10 11 11 9 9 9 8 9 8 7 7 9 9 8 11 8 8 9 9 9 8 8 8 9 10 12 11 9 8 9 7 6 8 8 8 8 8 7 7 8 8
4 2 3 0 3 4 3 4 3 2 2 2 2 1 0 2 2 6 9 12 5 9 16 11 3 9 17 20 20 13 0 1 4 5 6 7 5 5 6 7 9 9 10 9 10 9 8 9 9 9 9 10 9 10 11 10 9 7 8 9 9 8 12 10 9 11 10 9 10 13 13 8 7 7 8 8 7 8 8 8 8 7 7 7 8 7
4 4 4 3 5 7 6 8 6 4 4 3 5 5 4 3 7 9 12 11 9 8 9 11 11 14 14 18 19 17 6 5 6 6 7 6 7 7 7 8 8 10 10 10 8 8 8 10 10 10 10 10 11 11 11 11 10 10 9 10 8 8 10 6 10 9 10 12 14 13 10 8 7 8 8 8 10 9 8 8 8 8 8 8 8 7
6 4 8 3 5 11 15 11 5 7 7 7 5 3 4 7 10 11 7 7 4 7 11 16 16 18 17 9 11 17 16 3 2 10 13 12 7 5 5 8 9 10 11 9 7 7 8 9 10 10 11 12 12 12 12 11 10 9 8 9 9 10 10 8 9 9 10 13 13 13 9 8 9 8 9 10 8 8 8 8 7 8 7 7 7 8
3 2 2 4 6 8 11 9 10 3 2 4 10 12 15 16 16 13 11 7 7 13 14 7 8 14 16 1 5 13 13 10 11 13 14 13 8 3 5 7 10 12 9 7 7 7 8 8 9 10 11 11 11 11 11 11 11 9 9 10 10 12 6 7 9 11 12 13 10 8 9 10 9 9 10 8 10 8 7 7 7 8 8 7 8 7
5 6 6 5 7 10 4 5 4 4 2 5 12 20 21 17 17 17 14 11 14 14 11 10 16 15 11 8 6 13 16 18 16 14 15 13 5 1 4 8 10 9 10 11 10 9 8 9 9 9 9 7 9 10 12 11 10 11 12 11 12 6 5 8 10 11 11 11 10 10 9 7 8 9 9 9 7 6 6 7 7 8 7 9 8 7
4 7 6 5 7 5 4 6 4 5 9 13 14 7 9 17 18 16 17 21 21 12 9 10 10 10 10 12 14 16 17 16 15 15 9 7 6 3 6 9 8 6 8 10 10 11 9 8 8 7 7 7 9 9 10 9 9 12 11 11 9 5 8 8 10 10 11 10 9 9 7 7 8 9 8 6 6 7 8 8 9 8 7 6 6 8
8 5 5 4 4 5 3 7 4 13 13 11 0 7 13 15 13 16 20 18 14 12 10 13 16 17 18 17 16 16 13 12 12 14 14 6 2 4 7 9 8 7 8 8 10 10 9 8 8 8 8 8 7 7 6 9 8 9 9 10 9 7 7 7 8 8 9 9 8 6 8 8 8 8 7 7 7 8 8 9 7 7 7 8 9 9
4 5 3 1 4 1 3 5 9 7 1 3 6 7 2 2 7 7 11 12 9 10 12 15 16 16 16 15 11 8 7 10 8 5 4 5 6 5 6 6 8 9 9 7 8 9 8 8 9 9 9 8 7 7 6 8 8 6 10 6 7 8 6 7 7 8 7 9 8 8 7 8 8 7 6 7 7 8 8 7 8 9 7 7 6 5
8 2 2 0 2 5 3 8 9 6 12 11 9 5 4 4 4 8 8 9 9 6 7 11 12 8 6 5 5 7 9 6 7 2 3 7 14 11 9 7 5 8 9 10 8 9 8 7 8 9 8 9 9 9 9 7 5 6 7 6 6 5 5 5 8 9 9 9 8 8 7 7 8 7 7 7 8 8 8 7 7 6 6 7 7 7
8 9 5 5 4 6 6 5 1 3 10 13 13 2 2 4 6 7 7 4 6 5 3 4 2 2 4 5 6 8 6 8 10 4 6 13 13 12 12 12 9 6 7 9 9 7 8 8 9 10 8 9 11 10 8 7 6 5 6 7 5 4 5 5 10 9 7 8 6 6 6 6 7 7 7 7 8 7 6 6 5 7 7 9 8 8
8 7 5 9 4 3 5 7 8 7 8 6 6 3 4 5 4 4 5 8 1 1 1 3 2 1 2 1 6 5 8 6 7 8 5 6 13 13 12 11 9 9 8 8 10 11 11 10 9 10 10 10 12 12 7 7 6 5 8 7 6 5 6 9 9 7 8 7 5 5 6 7 7 8 8 7 7 7 8 8 8 6 6 6 6 6
10 7 6 8 9 10 7 7 9 4 7 7 2 1 2 3 6 4 6 4 2 3 1 0 2 2 3 2 1 3 2 5 8 11 10 9 9 11 9 13 13 11 11 10 9 9 9 8 6 9 10 10 13 9 8 6 5 7 8 8 5 6 10 10 9 6 4 4 5 5 5 6 7 7 7 8 6 6 7 5 5 6 6 5 6 6
9 7 10 14 12 12 13 9 6 7 5 6 5 6 6 1 3 3 9 2 4 4 3 2 3 4 3 0 1 5 2 4 9 11 10 9 10 13 12 8 10 8 8 8 9 9 9 11 9 10 11 10 11 9 6 5 6 9 8 7 6 11 10 6 4 4 4 3 3 3 3 3 4 6 4 5 6 5 4 5 6 6 6 6 5 5
7 4 3 9 12 12 12 12 10 8 4 3 3 2 3 5 7 11 2 2 3 3 4 3 3 4 2 2 2 4 7 7 7 9 9 8 7 9 10 10 10 13 12 8 8 6 7 10 11 12 12 7 7 7 6 6 8 9 8 7 11 11 4 3 3 2 2 2 2 1 1 1 1 2 3 4 5 6 5 3 5 6 6 6 6 7
9 7 7 11 7 6 5 8 8 11 3 2 0 1 1 4 3 2 1 2 3 2 5 3 4 3 3 3 4 6 7 9 8 9 10 11 9 9 10 12 14 13 13 14 16 14 10 11 13 13 13 11 7 5 5 5 9 10 8 10 10 5 3 2 2 2 2 2 2 2 2 2 3 4 3 5 5 7 6 5 6 5 6 7 7 7
4 6 3 6 7 6 8 9 7 4 3 3 1 5 0 3 2 6 5 0 2 3 1 4 4 4 4 4 5 7 7 8 9 8 10 12 11 12 12 11 11 12 11 8 6 9 9 11 12 13 11 9 7 5 4 4 8 9 9 11 5 2 0 1 3 3 3 3 3 3 3 4 4 4 4 5 6 7 8 7 7 7 6 7 7 7
7 8 4 5 3 6 4 3 2 3 4 0 3 3 3 3 2 6 5 3 2 2 4 0 3 3 5 4 5 6 8 8 9 10 8 11 12 11 12 12 12 13 14 12 10 7 6 8 11 13 15 12 7 5 4 3 6 9 9 6 0 1 1 2 3 4 4 3 3 4 4 4 4 4 4 4 6 7 6 7 7 7 5 7 6 6
3 1 1 1 5 2 2 2 4 1 2 1 0 2 3 3 1 3 5 1 3 6 3 3 4 3 3 3 4 6 6 8 9 11 11 11 11 12 11 11 12 11 11 11 10 6 6 8 9 10 12 15 7 6 4 4 4 9 8 2 1 1 1 2 3 3 4 4 4 4 5 6 5 4 4 4 3 4 4 6 6 7 6 6 6 6
3 1 1 3 2 5 8 1 4 4 1 1 3 3 2 1 1 3 4 5 4 4 4 4 5 4 4 3 4 6 8 9 9 10 10 10 12 12 12 12 13 13 12 13 13 9 10 6 10 11 11 13 10 5 5 4 5 7 5 3 2 1 2 3 3 3 3 4 4 4 5 7 6 5 5 4 4 4 4 5 5 6 6 6 7 7
3 2 2 2 2 5 6 3 2 1 2 4 4 1 3 2 1 4 4 3 3 3 2 4 2 4 3 4 4 3 7 8 8 10 10 11 11 12 12 12 13 13 12 9 10 9 8 9 10 11 10 11 10 5 5 4 5 5 3 2 1 2 3 3 3 4 4 4 3 4 5 6 7 7 6 5 6 6 5 4 5 6 7 7 8 9
3 4 4 4 5 4 5 6 2 1 1 2 0 4 4 3 2 1 2 3 4 4 6 6 3 5 5 7 5 3 5 8 8 9 10 11 11 12 13 14 14 13 13 13 10 7 9 10 12 11 10 12 7 4 4 5 5 4 4 2 1 3 4 4 3 3 4 4 4 4 4 5 5 6 6 6 5 3 3 6 6 6 4 3 4 6
2 5 3 3 1 2 7 5 1 1 3 4 5 7 7 5 5 4 4 5 5 5 5 5 7 5 4 4 4 4 5 7 8 7 10 12 12 13 13 14 14 15 15 12 8 8 8 9 9 12 12 11 6 4 3 4 4 4 3 2 2 3 5 4 5 4 4 4 4 5 5 5 6 6 6 6 6 6 6 6 6 3 5 4 6 8
5 5 5 5 6 5 3 5 2 3 3 6 7 7 6 6 6 7 6 4 4 4 5 6 8 9 9 8 5 5 6 6 8 7 9 10 12 12 11 12 13 14 15 14 13 15 12 10 8 8 11 10 5 5 3 3 3 3 3 3 3 3 4 5 6 5 4 5 5 6 6 6 7 6 6 6 7 6 7 7 6 9 8 7 8 9
Wind_Direction
98 104 165 186 208 206 221 174 185 196 154 123 101 116 188 140 328 275 324 285 300 11 241 237 266 268 273 268 271 267 271 253 248 249 245 244 242 239 239 237 233 229 231 227 211 212 208 204 200 195 185 191 193 191 187 189 191 188 187 181 193 195 185 182 183 186 188 194 196 201 201 205 190 186 190 199 199 194 194 188 186 185 189 190 195 194
67 88 237 211 197 192 213 208 136 72 55 119 101 66 347 130 158 279 234 315 337 105 289 328 307 276 263 267 268 271 271 257 237 238 242 239 236 236 235 240 239 237 273 251 230 230 229 219 205 189 183 178 183 204 190 192 195 193 185 187 194 185 188 192 191 190 192 197 199 195 203 197 182 182 184 199 200 198 193 190 185 182 187 192 197 200
59 174 241 226 206 145 93 99 106 119 93 47 117 143 55 323 183 297 318 335 284 80 266 339 326 283 275 263 265 259 247 243 228 226 234 233 236 238 239 241 246 253 251 247 240 220 205 206 199 189 192 195 197 195 196 199 189 189 190 196 192 191 191 197 193 186 198 199 197 194 192 182 183 211 194 182 188 189 192 196 191 188 188 193 199 200
81 289 239 249 155 112 40 77 86 66 68 103 57 65 201 234 96 296 286 324 258 146 268 352 320 289 285 254 250 254 250 262 256 243 245 236 235 237 234 231 231 235 241 242 235 228 209 196 191 189 197 203 194 185 194 196 195 195 198 196 193 194 197 196 195 197 195 173 147 134 126 160 164 189 179 179 163 187 188 204 197 200 192 198 202 198
188 237 294 113 140 133 139 68 87 84 157 321 129 130 152 284 265 163 247 303 317 348 53 347 300 292 311 334 327 290 266 248 268 247 253 251 236 240 254 270 228 225 222 234 242 243 191 183 194 196 200 180 188 192 191 187 188 194 199 199 191 190 195 194 183 174 148 124 124 107 69 93 100 51 155 183 217 199 197 194 203 207 190 201 208 204
282 266 342 119 63 91 106 77 155 122 105 330 242 180 194 152 125 53 8 42 17 349 323 51 351 298 293 303 271 292 324 300 282 295 244 244 249 252 253 246 241 238 228 217 222 212 195 194 195 203 187 188 198 199 203 195 193 187 191 187 181 179 183 186 174 166 156 166 164 160 163 175 188 200 188 202 208 198 199 205 194 197 198 199 206 205
199 11 111 185 138 90 73 139 240 120 166 91 262 147 179 140 127 116 18 58 343 215 295 72 109 282 297 284 278 276 296 294 307 297 270 270 257 251 240 241 236 230 245 255 274 230 179 208 191 205 197 197 197 214 190 187 192 189 183 187 184 183 184 180 174 166 165 171 179 185 192 194 197 203 221 224 217 201 215 185 195 202 199 200 207 215
79 10 65 58 82 79 88 124 262 133 108 216 242 164 104 89 106 152 116 140 221 246 306 30 121 222 308 292 194 224 332 312 312 297 290 263 250 247 248 243 245 245 232 215 227 202 203 192 192 199 200 195 207 197 176 192 190 189 191 185 187 183 182 183 172 175 177 179 184 188 195 196 200 205 209 194 202 187 182 199 208 200 208 205 205 207
144 171 130 98 72 81 166 203 286 117 123 212 231 163 113 135 153 117 97 119 83 44 288 331 34 271 254 266 313 3 316 302 279 280 272 268 261 262 270 257 248 254 234 200 209 211 195 198 205 199 196 211 199 180 191 192 196 194 190 188 183 186 183 186 179 178 185 184 185 189 191 203 213 205 204 186 190 185 180 194 204 200 208 215 218 212
340 159 214 147 123 176 228 283 275 160 87 250 177 79 74 71 63 97 99 90 346 72 266 258 196 218 272 280 310 349 258 277 272 267 271 269 271 271 256 238 217 217 150 218 224 202 194 204 202 198 189 182 201 197 192 197 188 193 188 188 187 194 187 185 184 182 186 187 181 190 198 204 204 197 197 180 197 197 187 203 200 201 202 209 217 222
251 301 159 100 179 190 148 101 88 45 129 126 72 61 24 32 32 20 66 87 52 282 247 223 213 163 280 264 239 171 226 203 258 295 293 313 353 14 110 155 149 122 103 114 109 103 127 213 186 162 176 196 194 194 187 190 194 192 189 190 194 198 189 186 186 183 188 187 188 197 198 202 201 195 189 193 206 198 201 210 211 207 210 205 217 217
4 350 97 302 29 119 97 72 360 57 81 101 91 113 53 347 14 26 347 33 140 266 264 256 231 171 215 291 275 238 282 261 227 273 243 294 238 130 131 183 181 174 180 173 142 146 122 106 103 146 180 188 193 189 198 197 191 191 194 189 195 202 196 190 186 186 188 188 196 200 195 202 201 190 196 203 206 199 204 206 210 211 209 211 212 213
324 263 259 10 282 125 93 82 341 10 2 68 80 63 110 253 33 320 19 262 216 221 257 328 242 321 242 227 271 288 265 260 256 317 268 215 246 255 265 267 278 239 212 201 188 187 210 190 188 188 194 179 189 197 201 202 194 192 193 194 193 208 200 194 186 190 190 192 198 198 199 202 195 198 202 206 210 201 205 202 206 201 212 206 210 211
268 298 53 276 0 240 132 122 180 49 244 117 144 141 110 154 133 239 264 233 298 293 263 325 332 257 273 273 220 237 255 257 258 253 226 197 209 233 262 251 231 233 216 239 224 218 225 233 236 227 210 199 196 201 199 197 194 196 199 199 200 209 200 196 191 191 194 202 199 198 199 199 193 203 203 209 209 207 207 200 206 205 205 205 210 206
150 318 272 140 247 188 185 171 177 175 174 205 120 153 176 151 162 209 182 207 221 215 282 280 90 235 88 252 284 255 262 282 271 264 275 256 276 233 254 251 262 320 267 231 225 222 222 237 238 239 231 227 218 205 200 198 200 197 205 203 207 208 208 201 200 196 201 201 201 201 201 200 198 204 206 211 207 204 205 205 208 210 206 209 207 206
206 206 253 196 247 162 184 216 135 93 94 258 167 86 98 219 129 160 204 157 235 327 343 212 215 193 177 267 283 239 269 278 282 303 332 339 358 156 164 232 274 271 256 239 231 238 232 222 224 227 236 236 238 229 215 210 205 205 209 208 210 208 204 205 204 206 202 203 200 202 204 205 202 205 209 214 210 212 204 206 206 209 207 210 203 201
78 254 307 188 39 178 192 127 192 151 191 237 117 213 208 184 115 93 0 1 95 35 255 161 301 278 297 301 260 268 279 302 322 304 288 244 184 328 264 282 268 252 248 240 230 231 240 252 251 236 233 232 226 220 215 213 206 207 206 207 214 215 211 211 211 208 204 203 200 207 207 205 206 207 209 212 212 209 208 207 208 208 208 203 198 197
154 233 325 102 218 301 192 139 104 22 148 96 187 236 213 92 121 140 215 345 89 204 267 102 241 298 20 293 311 31 78 290 316 285 284 304 1 339 311 319 271 255 248 251 247 244 237 229 230 230 229 224 217 215 218 218 212 214 211 211 213 212 214 216 210 210 206 203 206 207 208 210 210 211 216 215 214 206 206 211 206 206 204 204 198 192
128 279 290 16 207 285 341 128 319 345 44 147 191 204 121 255 258 304 96 256 220 274 275 283 246 260 195 246 350 314 305 291 295 291 291 323 19 5 319 280 276 275 276 261 260 268 264 249 240 233 231 225 221 222 222 218 211 216 220 221 218 219 218 214 213 215 217 208 208 206 207 208 212 215 217 217 212 205 213 215 208 205 205 196 193 192
71 170 287 348 105 302 13 113 202 199 330 25 63 90 138 100 168 144 198 176 120 243 27 281 113 266 175 218 180 222 238 251 253 275 322 63 94 255 249 279 323 338 322 295 266 260 259 262 257 245 234 225 221 220 218 212 209 220 221 221 228 239 233 224 220 214 215 212 208 209 205 213 211 211 212 209 204 212 216 218 214 213 202 200 189 195
236 159 224 277 303 76 190 195 208 156 161 196 139 213 213 23 232 112 294 147 174 183 186 255 296 255 262 188 184 211 231 248 215 152 128 82 266 291 309 307 304 274 216 223 239 259 265 257 263 265 258 252 258 243 211 210 218 225 223 229 226 228 229 226 226 217 222 207 214 204 209 208 204 210 207 211 211 215 217 214 211 213 212 189 200 184
156 136 180 198 67 226 245 240 183 181 184 178 174 194 180 131 144 161 258 25 121 178 234 156 260 279 236 198 182 146 157 119 152 137 294 251 305 329 326 294 308 353 340 337 310 255 255 265 274 276 271 270 252 249 238 232 227 239 234 233 235 238 236 228 227 222 223 217 213 210 212 207 203 203 203 209 214 218 215 212 209 206 205 211 208 188
158 152 107 176 201 201 221 253 260 196 297 194 167 225 178 172 133 139 206 260 350 252 161 153 357 270 209 155 145 159 173 120 33 9 9 341 337 345 336 334 334 326 299 300 303 313 330 287 246 245 234 229 222 228 229 235 221 226 229 231 233 231 239 230 240 247 249 241 231 223 214 203 205 199 206 209 214 216 211 210 208 195 202 210 210 207
102 98 105 288 312 315 344 318 13 41 125 314 254 130 114 206 183 171 173 191 160 245 232 272 226 266 212 136 173 177 211 215 130 65 33 344 331 333 330 320 313 312 309 298 292 311 307 295 291 277 252 246 242 230 226 224 223 226 229 230 232 235 237 225 224 223 229 236 243 246 231 219 209 201 207 212 212 211 207 202 203 192 202 204 199 203
159 259 144 136 28 341 345 340 1 338 36 176 207 224 177 179 146 166 105 128 219 213 190 140 241 257 275 177 164 24 6 61 28 353 13 347 321 300 291 291 305 311 310 312 310 312 313 314 289 262 245 239 238 239 230 224 223 221 227 222 226 234 229 222 210 210 223 224 232 233 232 234 220 213 212 214 204 209 197 201 198 194 198 192 200 206
127 177 144 165 193 201 226 193 220 228 217 231 210 215 195 168 157 109 228 195 219 246 184 200 245 260 264 152 102 98 40 18 6 328 310 216 243 267 297 303 293 298 289 290 299 306 292 270 277 282 258 245 237 229 227 226 226 229 229 226 219 226 221 220 204 214 218 221 222 226 227 231 227 226 219 211 206 200 194 194 196 195 199 185 194 196
158 87 149 185 194 216 205 199 226 119 85 165 245 192 217 186 177 171 128 164 216 224 225 228 233 257 267 267 241 257 118 113 293 290 281 297 303 289 239 252 264 268 279 280 272 266 277 285 269 260 269 254 245 234 231 228 231 232 234 240 229 222 218 217 210 218 218 218 218 226 229 226 227 230 229 219 210 193 191 193 193 191 196 187 192 189
79 216 240 134 177 187 180 157 119 109 145 227 205 285 302 191 206 184 181 224 196 196 251 231 229 240 262 270 272 265 263 156 239 243 274 298 274 263 286 289 286 279 268 263 267 264 257 259 275 285 279 280 270 266 260 244 238 236 232 241 233 221 218 220 214 218 219 216 220 226 231 227 222 226 228 224 212 204 198 192 192 194 187 179 191 191
132 176 275 65 255 214 187 248 142 105 187 196 158 197 187 208 172 205 237 237 157 202 234 248 164 231 257 268 276 276 96 201 238 260 238 236 264 289 298 297 290 286 279 269 260 263 266 264 261 266 271 271 278 281 280 279 269 248 243 241 236 222 227 216 201 209 209 214 222 228 231 222 217 217 219 214 211 208 202 194 192 189 186 187 193 190
104 231 249 179 260 277 262 249 252 199 188 211 250 240 217 199 220 214 236 244 232 243 264 276 266 249 253 265 277 291 283 252 274 264 270 265 255 267 279 278 277 274 273 269 261 255 260 269 278 279 278 281 278 277 277 275 270 262 252 251 237 227 234 192 218 214 216 213 216 226 225 214 213 211 210 210 211 208 197 190 188 186 191 194 191 188
165 241 182 152 227 257 257 253 238 248 252 240 214 239 266 265 259 235 228 251 262 280 260 258 268 274 265 271 301 288 286 316 275 276 273 277 280 247 261 275 272 271 273 278 278 272 262 261 265 270 277 277 279 276 274 273 269 267 260 256 248 236 228 196 217 214 218 226 229 221 203 203 215 204 210 213 207 202 195 190 182 185 191 189 185 185
144 241 91 136 192 251 246 235 241 225 223 245 257 244 237 239 249 257 245 217 214 237 247 265 278 266 271 164 227 279 294 290 276 276 282 283 289 309 267 273 277 280 283 280 271 266 270 267 264 266 267 272 276 277 277 276 273 271 263 253 248 246 220 198 216 219 222 228 231 229 213 209 203 203 215 205 210 200 193 182 184 189 188 183 185 185
173 142 152 165 193 233 248 156 179 124 99 252 241 234 227 231 231 240 248 244 225 220 237 238 242 254 278 292 282 281 281 284 288 282 282 290 315 48 271 268 270 278 289 293 290 285 279 279 279 281 283 281 278 277 273 270 277 276 270 269 256 245 201 214 219 223 229 229 224 221 218 213 205 210 210 211 202 189 182 187 190 193 185 191 188 172
136 151 171 162 193 237 212 129 119 125 215 233 239 224 199 225 228 231 240 238 242 222 230 239 266 282 280 279 271 270 277 278 281 285 280 301 346 328 270 267 284 308 311 309 308 308 309 309 309 303 290 279 278 277 278 283 272 271 274 273 282 246 226 216 226 220 231 229 226 222 213 207 209 213 211 195 187 184 187 187 196 191 190 180 172 181
159 158 171 184 159 221 109 118 168 218 227 239 261 144 196 217 226 224 236 242 248 253 252 265 264 262 260 260 265 271 279 292 297 297 316 6 47 327 327 336 349 341 327 324 321 321 322 320 315 318 317 311 297 285 290 288 272 277 285 280 279 260 243 230 230 230 231 232 230 218 213 209 208 211 201 190 186 187 191 190 185 183 184 180 183 183
148 160 156 230 170 177 165 170 223 213 214 316 282 244 264 221 230 234 257 260 252 240 235 240 246 253 260 270 289 320 328 296 296 302 22 48 55 37 7 341 326 319 316 309 302 300 306 310 307 303 300 296 300 292 275 268 281 286 272 281 256 260 242 237 231 235 226 229 222 217 212 204 208 206 194 187 187 189 191 185 182 184 180 178 184 184
170 128 103 280 193 205 186 209 234 356 318 289 282 259 162 188 170 176 238 256 240 245 236 239 251 273 315 331 328 315 315 317 317 339 14 4 358 359 347 328 314 303 300 302 297 292 293 285 291 295 298 302 301 299 293 286 282 271 278 277 260 247 247 232 237 237 228 227 217 213 206 203 201 201 192 187 187 192 187 178 181 182 167 171 177 175
169 183 184 180 233 181 231 263 282 214 240 249 244 278 168 175 169 172 170 270 40 10 28 81 79 322 318 313 336 328 328 8 313 308 14 358 337 338 331 323 320 304 297 295 295 286 290 297 303 303 302 301 299 290 291 290 282 275 272 268 263 247 247 233 240 238 234 235 222 210 200 199 194 193 190 186 192 188 182 180 176 174 172 173 174 179
197 185 157 196 224 181 204 226 235 231 239 246 263 226 252 245 181 117 156 239 166 280 307 113 19 304 253 280 319 359 29 348 285 283 320 347 325 324 323 313 308 308 303 300 301 305 303 300 296 293 303 304 302 300 306 288 274 269 267 264 259 245 248 243 247 241 233 234 214 205 196 190 189 188 185 187 187 178 177 180 178 168 166 168 163 168
187 190 164 214 217 224 223 227 236 215 253 237 226 205 195 122 113 128 212 243 169 252 245 146 339 281 261 230 204 47 78 331 293 304 318 322 313 305 302 305 311 313 313 311 307 302 295 284 295 303 301 298 293 300 298 283 272 263 263 265 252 248 245 246 245 249 243 229 212 206 195 190 187 185 180 184 177 176 175 154 139 150 154 155 150 149
187 193 194 207 211 223 225 246 264 271 259 261 235 229 257 299 51 306 227 197 175 204 228 191 275 266 234 290 15 349 219 228 260 279 300 306 314 309 307 299 297 294 295 302 303 308 311 313 311 298 292 291 295 301 301 291 278 270 265 264 258 248 244 251 258 238 231 216 204 202 204 199 189 180 180 168 163 150 136 143 144 141 141 140 135 133
200 193 192 199 216 218 220 224 235 265 244 206 268 196 164 108 205 229 192 142 177 185 210 188 229 262 208 208 210 229 265 268 267 277 283 281 272 279 285 292 302 313 316 316 313 320 318 315 314 314 312 309 299 299 308 306 286 275 276 269 255 256 274 247 221 201 175 168 172 163 143 144 96 123 133 118 119 119 116 109 125 138 135 132 136 137
181 177 190 202 200 226 203 235 232 240 248 111 232 17 41 173 236 123 207 272 200 218 156 218 199 248 178 268 258 263 277 293 293 292 296 304 308 304 308 315 320 319 318 323 325 326 334 322 318 316 311 315 316 309 310 312 286 284 284 269 268 291 267 181 137 122 116 105 99 92 96 96 113 109 112 122 127 128 127 129 126 128 130 133 133 133
203 156 204 209 180 203 194 210 214 210 153 259 104 188 265 195 164 161 147 175 250 210 198 165 221 220 209 213 274 287 281 290 302 303 311 310 311 314 315 312 309 309 305 293 278 296 318 313 310 311 307 308 307 312 312 301 282 283 283 273 300 306 21 96 103 109 106 102 99 95 93 104 104 106 118 128 128 131 135 140 138 134 140 138 137 137
207 192 178 193 227 167 198 206 162 172 144 249 110 151 190 221 173 171 157 171 164 277 200 286 244 227 217 239 262 278 301 295 290 297 300 298 302 303 305 304 301 300 299 300 298 297 301 295 299 304 307 307 307 298 299 290 278 284 274 277 310 257 152 107 106 109 113 110 109 104 101 94 99 111 116 130 136 135 140 138 139 132 141 135 135 138
305 184 197 134 253 250 267 188 153 81 113 107 304 200 190 244 221 168 155 185 254 230 208 234 263 252 230 219 248 290 279 289 302 306 306 304 302 300 300 301 303 299 298 301 303 302 290 294 294 297 299 303 304 295 298 296 271 272 266 273 264 228 144 126 116 117 126 122 119 121 116 105 88 89 95 97 99 124 140 142 141 137 142 137 138 139
255 129 68 177 267 189 253 37 149 175 133 297 266 269 279 318 188 164 178 211 234 243 250 242 239 261 240 196 217 255 280 292 299 298 299 300 300 300 301 300 298 300 302 304 300 313 310 305 301 298 300 299 305 304 295 301 286 264 270 235 217 172 140 135 132 128 128 128 126 120 119 119 119 112 102 101 98 109 123 131 135 138 137 140 140 139
278 164 99 212 211 164 228 141 178 253 247 250 225 296 70 100 194 221 211 217 242 277 255 271 296 288 275 285 253 238 275 292 298 297 302 301 300 300 301 300 299 303 301 292 296 303 298 295 291 292 294 292 296 301 296 298 286 286 272 246 199 156 134 137 150 149 151 143 136 131 130 126 130 126 122 123 128 128 126 133 145 145 154 161 158 153
195 106 212 174 181 278 321 293 262 147 304 280 244 198 197 213 228 274 283 289 307 316 315 322 297 275 306 298 327 322 287 287 288 291 294 296 299 302 302 304 305 302 301 305 305 302 294 299 297 290 288 284 286 289 298 292 293 301 285 263 214 163 143 146 139 139 144 149 137 137 134 130 128 126 123 119 109 101 134 156 154 145 128 119 151 158
121 196 216 94 23 257 211 232 150 23 280 292 319 308 314 5 64 62 49 38 18 3 339 336 324 319 290 289 308 315 310 300 301 299 298 298 297 299 303 306 307 306 304 302 302 293 289 281 277 285 286 281 282 277 272 282 287 292 278 248 216 179 157 155 146 152 164 159 150 146 138 130 126 127 127 126 121 112 81 67 85 101 129 133 123 118
164 206 157 176 169 234 210 210 187 145 215 248 260 289 30 30 48 44 30 10 349 357 348 349 340 338 339 332 343 345 319 307 300 305 300 297 297 297 298 299 303 306 306 310 314 308 299 290 281 278 279 278 278 272 259 254 271 279 274 236 217 195 180 164 162 162 165 165 169 163 151 146 143 144 137 134 133 127 121 110 81 87 106 121 127 133